EZY13HY EGGW-DTNH

Flight info

Callsign EZY13HY
Flight time 2h 33m
Altitude 37000
Route RODNI N27 ICTAM Q63 CPT DCT MID UL612 RESMI UN857 DISAK DCT DIRMO DCT ETAMO DCT ADEKA DCT MOKDI DCT MEN DCT BADAM DCT FJR DCT AMFAC DCT BATIV DCT PELOS DCT IPROM DCT PIRIX DCT OSMAR UA725 TANIT UM739 CBN M738 DIDON G727 ATLEL ATLEL1V
Aircraft A319/M-SDE3FGHIRWY/LB1

Departure

Time 2026-04-19 09:59
Airport London Luton Airport (EGGW)

Arrival

Time 2026-04-19 12:32
Airport Enfidha - Hammamet International Airport (DTNH)
Time Latitude Longitude Altitude Speed Heading
2026-04-19 09:52 51.87967 -0.37260 532 ft 0 kts 161°
2026-04-19 09:52 51.87976 -0.37265 532 ft 2 kts 161°
2026-04-19 09:53 51.87990 -0.37273 532 ft 1 kts 161°
2026-04-19 09:53 51.87999 -0.37278 532 ft 2 kts 147°
2026-04-19 09:53 51.88009 -0.37297 532 ft 2 kts 114°
2026-04-19 09:53 51.88012 -0.37319 532 ft 2 kts 85°
2026-04-19 09:54 51.88011 -0.37332 532 ft 1 kts 68°
2026-04-19 09:54 51.88009 -0.37338 532 ft 0 kts 72°
2026-04-19 09:55 51.88010 -0.37334 532 ft 1 kts 72°
2026-04-19 09:55 51.88020 -0.37284 532 ft 7 kts 72°
2026-04-19 09:56 51.88030 -0.37176 532 ft 12 kts 108°
2026-04-19 09:56 51.87985 -0.37027 532 ft 16 kts 127°
2026-04-19 09:56 51.87866 -0.36953 532 ft 20 kts 159°
2026-04-19 09:56 51.87717 -0.36889 532 ft 23 kts 162°
2026-04-19 09:57 51.87664 -0.36736 532 ft 16 kts 76°
2026-04-19 09:57 51.87695 -0.36550 532 ft 17 kts 75°
2026-04-19 09:57 51.87729 -0.36360 532 ft 17 kts 73°
2026-04-19 09:57 51.87765 -0.36167 532 ft 18 kts 73°
2026-04-19 09:58 51.87756 -0.35973 532 ft 18 kts 126°
2026-04-19 09:58 51.87633 -0.35905 532 ft 18 kts 176°
2026-04-19 09:58 51.87596 -0.36018 532 ft 0 kts 255°
2026-04-19 09:58 51.87588 -0.36066 532 ft 27 kts 256°
2026-04-19 09:59 51.87478 -0.36778 533 ft 100 kts 252°
2026-04-19 09:59 51.87213 -0.38205 636 ft 149 kts 256°
2026-04-19 09:59 51.86892 -0.39828 1220 ft 153 kts 253°
2026-04-19 09:59 51.86257 -0.41269 1868 ft 162 kts 221°
2026-04-19 10:00 51.85243 -0.42180 2502 ft 170 kts 208°
2026-04-19 10:00 51.84102 -0.42992 2963 ft 186 kts 205°
2026-04-19 10:00 51.83031 -0.44300 3388 ft 204 kts 231°
2026-04-19 10:00 51.82008 -0.46144 3784 ft 228 kts 216°
2026-04-19 10:01 51.80442 -0.46948 4241 ft 248 kts 176°
2026-04-19 10:01 51.78754 -0.46047 4822 ft 263 kts 152°
2026-04-19 10:01 51.77086 -0.44659 5681 ft 268 kts 158°
2026-04-19 10:01 51.75321 -0.43748 6557 ft 271 kts 167°
2026-04-19 10:02 51.73454 -0.43167 7424 ft 275 kts 173°
2026-04-19 10:02 51.71575 -0.43017 8470 ft 269 kts 180°
2026-04-19 10:02 51.69743 -0.43067 9659 ft 257 kts 182°
2026-04-19 10:02 51.67999 -0.43149 10763 ft 247 kts 182°
2026-04-19 10:03 51.66267 -0.43235 11508 ft 252 kts 182°
2026-04-19 10:03 51.64433 -0.43328 11938 ft 270 kts 182°
2026-04-19 10:03 51.62502 -0.43427 12331 ft 288 kts 182°
2026-04-19 10:03 51.60434 -0.43247 12681 ft 307 kts 167°
2026-04-19 10:04 51.58367 -0.42206 13024 ft 325 kts 160°
2026-04-19 10:04 51.56201 -0.40862 13341 ft 343 kts 159°
2026-04-19 10:04 51.53952 -0.39470 13747 ft 356 kts 159°
2026-04-19 10:04 51.51584 -0.38053 14452 ft 360 kts 160°
2026-04-19 10:05 51.49184 -0.36655 15181 ft 363 kts 160°
2026-04-19 10:05 51.46788 -0.35284 15851 ft 367 kts 161°
2026-04-19 10:05 51.44358 -0.33912 16504 ft 370 kts 161°
2026-04-19 10:05 51.41894 -0.32530 17142 ft 374 kts 161°
2026-04-19 10:06 51.39422 -0.31153 17760 ft 377 kts 161°
2026-04-19 10:06 51.36898 -0.29751 18366 ft 380 kts 161°
2026-04-19 10:06 51.34373 -0.28352 18950 ft 384 kts 161°
2026-04-19 10:06 51.31794 -0.26926 19523 ft 387 kts 161°
2026-04-19 10:07 51.29233 -0.25512 20073 ft 390 kts 161°
2026-04-19 10:07 51.26596 -0.24058 20622 ft 393 kts 161°
2026-04-19 10:07 51.23984 -0.22621 21149 ft 396 kts 161°
2026-04-19 10:07 51.21363 -0.21180 21660 ft 399 kts 161°
2026-04-19 10:08 51.18709 -0.19723 22159 ft 402 kts 161°
2026-04-19 10:08 51.16013 -0.18244 22643 ft 406 kts 161°
2026-04-19 10:08 51.13310 -0.16764 23116 ft 408 kts 161°
2026-04-19 10:08 51.10578 -0.15269 23583 ft 411 kts 161°
2026-04-19 10:09 51.07872 -0.13790 24028 ft 414 kts 161°
2026-04-19 10:09 51.05101 -0.12278 24470 ft 417 kts 161°
2026-04-19 10:09 51.02313 -0.10759 24904 ft 419 kts 161°
2026-04-19 10:09 50.99503 -0.09229 25328 ft 422 kts 161°
2026-04-19 10:10 50.96696 -0.07702 25739 ft 425 kts 161°
2026-04-19 10:10 50.93871 -0.06169 26140 ft 427 kts 161°
2026-04-19 10:10 50.91013 -0.04619 26534 ft 430 kts 161°
2026-04-19 10:10 50.88159 -0.03075 26916 ft 432 kts 161°
2026-04-19 10:11 50.85284 -0.01528 27288 ft 435 kts 161°
2026-04-19 10:11 50.82456 -0.00008 27645 ft 437 kts 161°
2026-04-19 10:11 50.79499 0.01582 28012 ft 439 kts 161°
2026-04-19 10:11 50.76564 0.03162 28363 ft 441 kts 161°
2026-04-19 10:12 50.73613 0.04748 28705 ft 444 kts 161°
2026-04-19 10:12 50.70552 0.06392 29050 ft 446 kts 161°
2026-04-19 10:12 50.67558 0.08000 29385 ft 448 kts 161°
2026-04-19 10:12 50.64547 0.09614 29814 ft 447 kts 161°
2026-04-19 10:13 50.61602 0.11191 30269 ft 445 kts 161°
2026-04-19 10:13 50.58611 0.12790 30710 ft 444 kts 161°
2026-04-19 10:13 50.55681 0.14354 31122 ft 443 kts 161°
2026-04-19 10:13 50.52713 0.15936 31525 ft 442 kts 161°
2026-04-19 10:14 50.49756 0.17510 31921 ft 441 kts 161°
2026-04-19 10:14 50.46809 0.19076 32307 ft 440 kts 161°
2026-04-19 10:14 50.43882 0.20630 32682 ft 439 kts 161°
2026-04-19 10:14 50.40984 0.22166 33047 ft 439 kts 161°
2026-04-19 10:15 50.38037 0.23727 33407 ft 438 kts 161°
2026-04-19 10:15 50.35356 0.25145 33716 ft 437 kts 161°
2026-04-19 10:15 50.32451 0.26679 34031 ft 437 kts 161°
2026-04-19 10:15 50.29541 0.28214 34345 ft 437 kts 161°
2026-04-19 10:16 50.26621 0.29753 34657 ft 436 kts 161°
2026-04-19 10:16 50.23682 0.31299 34959 ft 436 kts 161°
2026-04-19 10:16 50.20783 0.32822 35244 ft 435 kts 161°
2026-04-19 10:16 50.17905 0.34332 35518 ft 435 kts 161°
2026-04-19 10:17 50.15510 0.35588 35721 ft 435 kts 161°
2026-04-19 10:17 50.12599 0.37112 35896 ft 437 kts 161°
2026-04-19 10:17 50.09950 0.38497 35980 ft 440 kts 161°
2026-04-19 10:17 50.07020 0.40027 36082 ft 443 kts 161°
2026-04-19 10:18 50.04035 0.41584 36224 ft 445 kts 161°
2026-04-19 10:18 50.01154 0.43085 36366 ft 447 kts 161°
2026-04-19 10:18 49.98191 0.44626 36625 ft 445 kts 161°
2026-04-19 10:19 49.92318 0.47677 37067 ft 443 kts 161°
2026-04-19 10:19 49.89735 0.49016 37190 ft 443 kts 161°
2026-04-19 10:19 49.83769 0.52088 37265 ft 444 kts 161°
2026-04-19 10:20 49.77856 0.55129 37283 ft 444 kts 161°
2026-04-19 10:20 49.71930 0.58174 37292 ft 444 kts 161°
2026-04-19 10:21 49.66030 0.61202 37295 ft 444 kts 161°
2026-04-19 10:21 49.60112 0.64232 37285 ft 444 kts 161°
2026-04-19 10:22 49.54195 0.67271 37277 ft 444 kts 161°
2026-04-19 10:22 49.48210 0.70346 37273 ft 444 kts 162°
2026-04-19 10:23 49.42251 0.73384 37272 ft 444 kts 162°
2026-04-19 10:23 49.36196 0.76457 37272 ft 444 kts 162°
2026-04-19 10:24 49.30222 0.79478 37272 ft 444 kts 162°
2026-04-19 10:24 49.24277 0.82475 37274 ft 444 kts 162°
2026-04-19 10:25 49.18292 0.85485 37273 ft 444 kts 162°
2026-04-19 10:25 49.12365 0.88458 37272 ft 444 kts 162°
2026-04-19 10:26 49.06428 0.91429 37270 ft 444 kts 162°
2026-04-19 10:26 49.00504 0.94386 37270 ft 444 kts 162°
2026-04-19 10:27 48.94579 0.97336 37277 ft 444 kts 162°
2026-04-19 10:27 48.88661 1.00275 37289 ft 444 kts 162°
2026-04-19 10:28 48.82677 1.03225 37297 ft 444 kts 162°
2026-04-19 10:28 48.76724 1.06158 37299 ft 444 kts 162°
2026-04-19 10:29 48.70803 1.09073 37299 ft 444 kts 162°
2026-04-19 10:29 48.64873 1.11988 37299 ft 444 kts 162°
2026-04-19 10:30 48.58930 1.14902 37299 ft 444 kts 162°
2026-04-19 10:30 48.53012 1.17798 37299 ft 444 kts 162°
2026-04-19 10:31 48.47047 1.20710 37299 ft 444 kts 162°
2026-04-19 10:31 48.41108 1.23601 37299 ft 444 kts 162°
2026-04-19 10:32 48.35153 1.26493 37299 ft 444 kts 162°
2026-04-19 10:32 48.29199 1.29377 37299 ft 444 kts 162°
2026-04-19 10:33 48.23274 1.32241 37299 ft 444 kts 162°
2026-04-19 10:33 48.17358 1.35094 37299 ft 444 kts 162°
2026-04-19 10:34 48.11446 1.37938 37299 ft 444 kts 162°
2026-04-19 10:34 48.05486 1.40798 37299 ft 444 kts 162°
2026-04-19 10:35 47.99539 1.43644 37299 ft 444 kts 162°
2026-04-19 10:35 47.93609 1.46476 37299 ft 444 kts 162°
2026-04-19 10:36 47.87648 1.49312 37299 ft 444 kts 162°
2026-04-19 10:36 47.81734 1.52108 37298 ft 444 kts 162°
2026-04-19 10:37 47.75788 1.54919 37298 ft 444 kts 162°
2026-04-19 10:37 47.69888 1.57707 37298 ft 444 kts 162°
2026-04-19 10:38 47.63961 1.60502 37299 ft 444 kts 162°
2026-04-19 10:38 47.58002 1.63306 37299 ft 444 kts 162°
2026-04-19 10:39 47.52116 1.66075 37299 ft 444 kts 162°
2026-04-19 10:39 47.46155 1.68897 37299 ft 444 kts 162°
2026-04-19 10:40 47.40199 1.71695 37299 ft 444 kts 162°
2026-04-19 10:40 47.34269 1.74465 37299 ft 444 kts 162°
2026-04-19 10:41 47.28309 1.77239 37299 ft 444 kts 162°
2026-04-19 10:41 47.22366 1.79997 37299 ft 444 kts 162°
2026-04-19 10:42 47.16409 1.82755 37299 ft 444 kts 162°
2026-04-19 10:42 47.10436 1.85514 37299 ft 444 kts 162°
2026-04-19 10:43 47.04496 1.88250 37299 ft 444 kts 162°
2026-04-19 10:43 46.98565 1.90976 37299 ft 444 kts 162°
2026-04-19 10:44 46.92635 1.93696 37299 ft 444 kts 162°
2026-04-19 10:44 46.86718 1.96398 37299 ft 444 kts 162°
2026-04-19 10:45 46.80761 1.99105 37299 ft 444 kts 162°
2026-04-19 10:45 46.74818 2.01806 37299 ft 444 kts 162°
2026-04-19 10:46 46.68877 2.04503 37299 ft 444 kts 162°
2026-04-19 10:46 46.62884 2.07219 37299 ft 444 kts 162°
2026-04-19 10:47 46.56938 2.09908 37299 ft 444 kts 162°
2026-04-19 10:47 46.50976 2.12598 37299 ft 444 kts 162°
2026-04-19 10:48 46.45050 2.15266 37299 ft 444 kts 162°
2026-04-19 10:48 46.39078 2.17948 37299 ft 444 kts 162°
2026-04-19 10:49 46.33107 2.20624 37299 ft 444 kts 162°
2026-04-19 10:49 46.27145 2.23290 37299 ft 444 kts 162°
2026-04-19 10:50 46.21187 2.25948 37299 ft 444 kts 162°
2026-04-19 10:50 46.15260 2.28586 37299 ft 444 kts 162°
2026-04-19 10:51 46.09301 2.31233 37299 ft 444 kts 162°
2026-04-19 10:51 46.03336 2.33876 37299 ft 444 kts 162°
2026-04-19 10:52 45.97385 2.36507 37299 ft 444 kts 162°
2026-04-19 10:52 45.91449 2.39125 37299 ft 444 kts 162°
2026-04-19 10:53 45.85489 2.41740 37299 ft 444 kts 162°
2026-04-19 10:53 45.79550 2.44337 37299 ft 444 kts 162°
2026-04-19 10:54 45.73638 2.46922 37299 ft 444 kts 162°
2026-04-19 10:54 45.67681 2.49524 37299 ft 444 kts 162°
2026-04-19 10:55 45.61733 2.52118 37299 ft 444 kts 162°
2026-04-19 10:55 45.55783 2.54708 37299 ft 444 kts 162°
2026-04-19 10:56 45.49834 2.57291 37299 ft 444 kts 162°
2026-04-19 10:56 45.43864 2.59878 37299 ft 444 kts 162°
2026-04-19 10:57 45.37884 2.62464 37299 ft 444 kts 162°
2026-04-19 10:57 45.31927 2.65034 37299 ft 444 kts 163°
2026-04-19 10:58 45.26012 2.67605 37299 ft 444 kts 163°
2026-04-19 10:58 45.20034 2.70193 37299 ft 444 kts 163°
2026-04-19 10:59 45.14137 2.73147 37295 ft 444 kts 153°
2026-04-19 10:59 45.09097 2.78208 37295 ft 444 kts 136°
2026-04-19 11:00 45.04785 2.84634 37298 ft 444 kts 133°
2026-04-19 11:00 45.00560 2.91075 37298 ft 444 kts 133°
2026-04-19 11:01 44.96308 2.97499 37299 ft 444 kts 133°
2026-04-19 11:01 44.92021 3.03935 37299 ft 444 kts 133°
2026-04-19 11:02 44.87735 3.10331 37299 ft 444 kts 133°
2026-04-19 11:02 44.83436 3.16702 37299 ft 444 kts 133°
2026-04-19 11:03 44.79118 3.23106 37298 ft 444 kts 133°
2026-04-19 11:03 44.74848 3.29437 37298 ft 444 kts 133°
2026-04-19 11:04 44.70535 3.35822 37298 ft 444 kts 133°
2026-04-19 11:04 44.66247 3.42156 37298 ft 444 kts 133°
2026-04-19 11:05 44.61946 3.48496 37298 ft 444 kts 133°
2026-04-19 11:05 44.57643 3.54824 37299 ft 444 kts 133°
2026-04-19 11:06 44.53312 3.61180 37299 ft 444 kts 133°
2026-04-19 11:06 44.49004 3.67493 37299 ft 444 kts 134°
2026-04-19 11:07 44.44685 3.73830 37299 ft 444 kts 134°
2026-04-19 11:07 44.40391 3.80103 37299 ft 444 kts 134°
2026-04-19 11:08 44.36053 3.86417 37299 ft 444 kts 134°
2026-04-19 11:08 44.31733 3.92686 37299 ft 444 kts 134°
2026-04-19 11:09 44.27398 3.98962 37299 ft 444 kts 134°
2026-04-19 11:09 44.23053 4.05237 37299 ft 444 kts 134°
2026-04-19 11:10 44.18840 4.11309 37299 ft 444 kts 134°
2026-04-19 11:10 44.14556 4.17469 37300 ft 446 kts 134°
2026-04-19 11:11 44.10156 4.23782 37299 ft 454 kts 134°
2026-04-19 11:11 44.05671 4.30202 37300 ft 460 kts 134°
2026-04-19 11:12 44.01151 4.36655 37299 ft 461 kts 134°
2026-04-19 11:12 43.96619 4.43112 37299 ft 461 kts 134°
2026-04-19 11:13 43.92099 4.49536 37299 ft 461 kts 134°
2026-04-19 11:13 43.87534 4.55994 37299 ft 461 kts 134°
2026-04-19 11:14 43.82994 4.62375 37298 ft 461 kts 134°
2026-04-19 11:14 43.78460 4.68767 37299 ft 461 kts 134°
2026-04-19 11:15 43.73920 4.75182 37299 ft 461 kts 134°
2026-04-19 11:15 43.69369 4.81588 37299 ft 461 kts 134°
2026-04-19 11:16 43.64827 4.87959 37299 ft 461 kts 135°
2026-04-19 11:16 43.60247 4.94364 37299 ft 461 kts 135°
2026-04-19 11:17 43.55704 5.00702 37299 ft 461 kts 135°
2026-04-19 11:17 43.51140 5.07057 37299 ft 461 kts 135°
2026-04-19 11:18 43.46592 5.13374 37299 ft 461 kts 135°
2026-04-19 11:18 43.42046 5.19675 37299 ft 461 kts 135°
2026-04-19 11:19 43.37515 5.25941 37299 ft 461 kts 135°
2026-04-19 11:19 43.32943 5.32249 37299 ft 461 kts 135°
2026-04-19 11:20 43.28409 5.38491 37299 ft 461 kts 135°
2026-04-19 11:20 43.23866 5.44730 37299 ft 461 kts 135°
2026-04-19 11:21 43.19277 5.51018 37299 ft 461 kts 135°
2026-04-19 11:22 43.12448 5.60351 37299 ft 461 kts 135°
2026-04-19 11:22 43.07820 5.66660 37299 ft 461 kts 135°
2026-04-19 11:23 43.03213 5.72953 37298 ft 461 kts 135°
2026-04-19 11:23 42.98643 5.79168 37298 ft 461 kts 135°
2026-04-19 11:24 42.94084 5.85345 37298 ft 461 kts 135°
2026-04-19 11:24 42.89486 5.91555 37298 ft 461 kts 135°
2026-04-19 11:25 42.84859 5.97752 37299 ft 461 kts 135°
2026-04-19 11:25 42.80260 6.03909 37299 ft 461 kts 135°
2026-04-19 11:26 42.76069 6.09523 37299 ft 461 kts 135°
2026-04-19 11:26 42.71435 6.15677 37295 ft 461 kts 138°
2026-04-19 11:27 42.66089 6.20640 37299 ft 461 kts 149°
2026-04-19 11:27 42.60562 6.25134 37299 ft 461 kts 149°
2026-04-19 11:28 42.55054 6.29640 37299 ft 461 kts 148°
2026-04-19 11:28 42.49535 6.34182 37299 ft 461 kts 148°
2026-04-19 11:29 42.43970 6.38769 37299 ft 461 kts 148°
2026-04-19 11:29 42.38407 6.43349 37299 ft 461 kts 148°
2026-04-19 11:30 42.32835 6.47930 37299 ft 461 kts 148°
2026-04-19 11:30 42.27342 6.52436 37299 ft 461 kts 148°
2026-04-19 11:31 42.21785 6.56986 37299 ft 461 kts 148°
2026-04-19 11:31 42.16249 6.61508 37299 ft 461 kts 148°
2026-04-19 11:32 42.10711 6.66024 37299 ft 461 kts 149°
2026-04-19 11:32 42.05193 6.70542 37299 ft 461 kts 149°
2026-04-19 11:33 41.99680 6.75035 37298 ft 461 kts 149°
2026-04-19 11:33 41.94136 6.79533 37298 ft 461 kts 149°
2026-04-19 11:34 41.88599 6.84010 37299 ft 461 kts 149°
2026-04-19 11:34 41.83054 6.88461 37299 ft 461 kts 149°
2026-04-19 11:35 41.77490 6.92928 37299 ft 461 kts 149°
2026-04-19 11:35 41.71916 6.97401 37299 ft 461 kts 149°
2026-04-19 11:36 41.66341 7.01871 37299 ft 461 kts 149°
2026-04-19 11:36 41.60775 7.06325 37299 ft 461 kts 149°
2026-04-19 11:37 41.55201 7.10778 37299 ft 461 kts 149°
2026-04-19 11:37 41.49572 7.15264 37299 ft 461 kts 149°
2026-04-19 11:38 41.44022 7.19679 37299 ft 461 kts 149°
2026-04-19 11:38 41.38454 7.24098 37299 ft 461 kts 149°
2026-04-19 11:39 41.32853 7.28535 37299 ft 461 kts 149°
2026-04-19 11:39 41.27281 7.32940 37299 ft 461 kts 149°
2026-04-19 11:40 41.21698 7.37345 37299 ft 461 kts 149°
2026-04-19 11:40 41.16152 7.41713 37299 ft 461 kts 149°
2026-04-19 11:41 41.10574 7.46097 37299 ft 461 kts 149°
2026-04-19 11:41 41.04981 7.50483 37299 ft 461 kts 149°
2026-04-19 11:42 40.99418 7.54838 37299 ft 461 kts 149°
2026-04-19 11:42 40.93827 7.59205 37299 ft 461 kts 149°
2026-04-19 11:43 40.88224 7.63571 37299 ft 461 kts 149°
2026-04-19 11:43 40.82558 7.67972 37299 ft 461 kts 149°
2026-04-19 11:44 40.76981 7.72317 37299 ft 461 kts 149°
2026-04-19 11:44 40.71357 7.76683 37299 ft 461 kts 149°
2026-04-19 11:45 40.65782 7.80998 37299 ft 461 kts 150°
2026-04-19 11:45 40.60158 7.85340 37299 ft 461 kts 150°
2026-04-19 11:46 40.54583 7.89636 37299 ft 461 kts 150°
2026-04-19 11:46 40.48975 7.93948 37299 ft 461 kts 150°
2026-04-19 11:47 40.43343 7.98270 37299 ft 461 kts 150°
2026-04-19 11:47 40.37702 8.02590 37299 ft 461 kts 150°
2026-04-19 11:48 40.32044 8.06914 37299 ft 461 kts 150°
2026-04-19 11:48 40.26399 8.11221 37299 ft 461 kts 150°
2026-04-19 11:49 40.20789 8.15494 37299 ft 461 kts 150°
2026-04-19 11:49 40.15100 8.19818 37299 ft 461 kts 150°
2026-04-19 11:50 40.09453 8.24101 37299 ft 461 kts 150°
2026-04-19 11:50 40.03812 8.28372 37299 ft 461 kts 150°
2026-04-19 11:51 39.98157 8.32645 37299 ft 461 kts 150°
2026-04-19 11:51 39.92522 8.36894 37299 ft 461 kts 150°
2026-04-19 11:52 39.86858 8.41149 37299 ft 461 kts 150°
2026-04-19 11:52 39.81209 8.45370 37298 ft 461 kts 150°
2026-04-19 11:53 39.75530 8.49618 37298 ft 461 kts 150°
2026-04-19 11:53 39.69865 8.53854 37298 ft 461 kts 150°
2026-04-19 11:54 39.64192 8.58089 37299 ft 461 kts 150°
2026-04-19 11:54 39.58541 8.62302 37299 ft 461 kts 150°
2026-04-19 11:55 39.52992 8.66437 37299 ft 461 kts 150°
2026-04-19 11:55 39.47294 8.70699 37299 ft 461 kts 150°
2026-04-19 11:56 39.41613 8.74927 37299 ft 461 kts 150°
2026-04-19 11:56 39.35980 8.79100 37299 ft 461 kts 150°
2026-04-19 11:57 39.30271 8.83318 37299 ft 461 kts 150°
2026-04-19 11:57 39.24607 8.87493 37299 ft 461 kts 150°
2026-04-19 11:58 39.18938 8.91665 37299 ft 461 kts 150°
2026-04-19 11:58 39.13184 8.95890 37299 ft 461 kts 150°
2026-04-19 11:59 39.07601 8.99982 37299 ft 461 kts 150°
2026-04-19 11:59 39.01935 9.04128 37299 ft 461 kts 150°
2026-04-19 12:00 38.96581 9.08933 37298 ft 461 kts 142°
2026-04-19 12:00 38.91368 9.14220 37299 ft 461 kts 141°
2026-04-19 12:01 38.86195 9.19418 37299 ft 461 kts 142°
2026-04-19 12:01 38.81059 9.24527 37299 ft 461 kts 142°
2026-04-19 12:02 38.75947 9.29604 37298 ft 461 kts 142°
2026-04-19 12:02 38.70645 9.34319 37295 ft 461 kts 152°
2026-04-19 12:03 38.64558 9.37138 37298 ft 462 kts 164°
2026-04-19 12:03 38.58225 9.39286 37299 ft 463 kts 165°
2026-04-19 12:04 38.51918 9.41423 37299 ft 463 kts 165°
2026-04-19 12:04 38.45624 9.43576 37299 ft 463 kts 165°
2026-04-19 12:05 38.39312 9.45744 37299 ft 463 kts 165°
2026-04-19 12:05 38.32966 9.47923 37299 ft 463 kts 165°
2026-04-19 12:06 38.26670 9.50083 37299 ft 463 kts 165°
2026-04-19 12:06 38.20412 9.52225 37299 ft 463 kts 165°
2026-04-19 12:07 38.14113 9.54378 37298 ft 461 kts 165°
2026-04-19 12:07 38.10979 9.55448 37130 ft 452 kts 165°
2026-04-19 12:07 38.07958 9.56479 36879 ft 443 kts 165°
2026-04-19 12:07 38.04971 9.57498 36626 ft 439 kts 165°
2026-04-19 12:08 38.01980 9.58517 36319 ft 437 kts 165°
2026-04-19 12:08 37.99000 9.59531 35801 ft 437 kts 165°
2026-04-19 12:08 37.96074 9.60526 35148 ft 439 kts 165°
2026-04-19 12:08 37.93078 9.61543 34444 ft 441 kts 165°
2026-04-19 12:09 37.90096 9.62554 33722 ft 443 kts 165°
2026-04-19 12:09 37.87055 9.63581 32969 ft 446 kts 165°
2026-04-19 12:09 37.83893 9.64646 32170 ft 448 kts 165°
2026-04-19 12:09 37.80842 9.65677 31387 ft 450 kts 165°
2026-04-19 12:10 37.77805 9.66716 30584 ft 452 kts 165°
2026-04-19 12:10 37.74760 9.67756 29946 ft 449 kts 165°
2026-04-19 12:10 37.71709 9.68794 29461 ft 442 kts 165°
2026-04-19 12:10 37.68733 9.69804 28973 ft 437 kts 165°
2026-04-19 12:11 37.65788 9.70799 28481 ft 432 kts 165°
2026-04-19 12:11 37.62868 9.71785 27990 ft 428 kts 165°
2026-04-19 12:11 37.60002 9.72751 27499 ft 423 kts 165°
2026-04-19 12:11 37.57114 9.73722 27003 ft 419 kts 165°
2026-04-19 12:12 37.54306 9.74666 26514 ft 414 kts 165°
2026-04-19 12:12 37.51522 9.75601 26030 ft 411 kts 165°
2026-04-19 12:12 37.48712 9.76544 25535 ft 407 kts 165°
2026-04-19 12:12 37.45977 9.77462 25053 ft 403 kts 165°
2026-04-19 12:13 37.43263 9.78371 24570 ft 400 kts 165°
2026-04-19 12:13 37.40546 9.79280 24086 ft 397 kts 165°
2026-04-19 12:13 37.37854 9.80181 23603 ft 394 kts 165°
2026-04-19 12:13 37.35210 9.81064 23126 ft 391 kts 165°
2026-04-19 12:14 37.32546 9.81954 22645 ft 389 kts 165°
2026-04-19 12:14 37.29924 9.82829 22170 ft 386 kts 165°
2026-04-19 12:14 37.27328 9.83695 21699 ft 384 kts 165°
2026-04-19 12:14 37.25230 9.84395 21322 ft 382 kts 165°
2026-04-19 12:15 37.22660 9.85251 20875 ft 379 kts 165°
2026-04-19 12:15 37.20069 9.86113 20383 ft 378 kts 165°
2026-04-19 12:15 37.17757 9.86883 19930 ft 378 kts 165°
2026-04-19 12:15 37.15144 9.87752 19437 ft 377 kts 165°
2026-04-19 12:16 37.12609 9.88593 18962 ft 375 kts 165°
2026-04-19 12:16 37.10047 9.89445 18488 ft 374 kts 165°
2026-04-19 12:16 37.07529 9.90282 18020 ft 372 kts 165°
2026-04-19 12:16 37.04973 9.91132 17546 ft 371 kts 165°
2026-04-19 12:17 37.02441 9.91973 17075 ft 369 kts 165°
2026-04-19 12:17 36.99948 9.92800 16612 ft 368 kts 165°
2026-04-19 12:17 36.97460 9.93624 16147 ft 366 kts 165°
2026-04-19 12:17 36.94957 9.94452 15674 ft 365 kts 165°
2026-04-19 12:18 36.92501 9.95264 15208 ft 364 kts 165°
2026-04-19 12:18 36.89983 9.96095 14730 ft 363 kts 165°
2026-04-19 12:18 36.87515 9.96906 14262 ft 361 kts 165°
2026-04-19 12:18 36.85052 9.97714 13796 ft 359 kts 165°
2026-04-19 12:19 36.82599 9.98519 13330 ft 357 kts 165°
2026-04-19 12:19 36.80172 9.99315 12869 ft 354 kts 165°
2026-04-19 12:19 36.77734 10.00116 12406 ft 352 kts 165°
2026-04-19 12:19 36.75349 10.00900 11950 ft 349 kts 165°
2026-04-19 12:20 36.73062 10.01651 11513 ft 346 kts 165°
2026-04-19 12:20 36.70707 10.02424 11059 ft 343 kts 165°
2026-04-19 12:20 36.68363 10.03193 10608 ft 340 kts 165°
2026-04-19 12:20 36.66107 10.03933 10436 ft 327 kts 165°
2026-04-19 12:21 36.63922 10.04649 10341 ft 312 kts 165°
2026-04-19 12:21 36.61836 10.05333 10255 ft 298 kts 165°
2026-04-19 12:21 36.59849 10.05984 10178 ft 285 kts 165°
2026-04-19 12:21 36.57896 10.06625 9884 ft 283 kts 165°
2026-04-19 12:22 36.55988 10.07250 9549 ft 281 kts 165°
2026-04-19 12:22 36.54125 10.07860 9231 ft 279 kts 165°
2026-04-19 12:22 36.52229 10.08480 8916 ft 277 kts 165°
2026-04-19 12:22 36.50360 10.09089 8605 ft 275 kts 165°
2026-04-19 12:23 36.48497 10.09695 8293 ft 273 kts 165°
2026-04-19 12:23 36.46620 10.10308 7978 ft 271 kts 165°
2026-04-19 12:23 36.44776 10.10908 7672 ft 269 kts 165°
2026-04-19 12:23 36.42959 10.11499 7370 ft 268 kts 165°
2026-04-19 12:24 36.41130 10.12094 7065 ft 266 kts 165°
2026-04-19 12:24 36.39307 10.12688 6760 ft 265 kts 165°
2026-04-19 12:24 36.37529 10.13268 6463 ft 263 kts 165°
2026-04-19 12:24 36.35737 10.13852 6166 ft 261 kts 165°
2026-04-19 12:25 36.33975 10.14425 5877 ft 260 kts 165°
2026-04-19 12:25 36.32198 10.15002 5580 ft 259 kts 165°
2026-04-19 12:25 36.30428 10.15577 5283 ft 257 kts 165°
2026-04-19 12:25 36.28693 10.16141 4998 ft 255 kts 165°
2026-04-19 12:26 36.26963 10.16704 4706 ft 255 kts 165°
2026-04-19 12:26 36.25216 10.17271 4413 ft 253 kts 165°
2026-04-19 12:26 36.23474 10.17835 4182 ft 262 kts 165°
2026-04-19 12:26 36.21664 10.18421 4147 ft 268 kts 165°
2026-04-19 12:27 36.19847 10.19011 4107 ft 264 kts 165°
2026-04-19 12:27 36.18058 10.19590 3871 ft 259 kts 165°
2026-04-19 12:27 36.16855 10.19980 3733 ft 255 kts 165°
2026-04-19 12:27 36.15151 10.20532 3606 ft 245 kts 165°
2026-04-19 12:28 36.11928 10.21575 3394 ft 226 kts 165°
2026-04-19 12:28 36.09914 10.22226 3138 ft 221 kts 166°
2026-04-19 12:28 36.08418 10.22710 2695 ft 229 kts 163°
2026-04-19 12:29 36.07023 10.23702 2405 ft 226 kts 131°
2026-04-19 12:29 36.06376 10.25396 2352 ft 212 kts 95°
2026-04-19 12:29 36.06552 10.27152 2305 ft 200 kts 75°
2026-04-19 12:29 36.06980 10.28789 2097 ft 197 kts 71°
2026-04-19 12:30 36.07366 10.30431 1841 ft 198 kts 79°
2026-04-19 12:30 36.07558 10.32149 1579 ft 197 kts 87°
2026-04-19 12:30 36.07623 10.33837 1404 ft 190 kts 89°
2026-04-19 12:30 36.07624 10.35441 1139 ft 180 kts 92°
2026-04-19 12:31 36.07609 10.36954 882 ft 170 kts 92°
2026-04-19 12:31 36.07600 10.38340 667 ft 158 kts 92°
2026-04-19 12:31 36.07592 10.39669 447 ft 147 kts 88°
2026-04-19 12:31 36.07585 10.40880 245 ft 133 kts 88°
2026-04-19 12:32 36.07582 10.41995 55 ft 127 kts 93°
2026-04-19 12:32 36.07572 10.42993 29 ft 79 kts 87°
2026-04-19 12:32 36.07609 10.43355 29 ft 32 kts 61°
2026-04-19 12:32 36.07822 10.43615 29 ft 49 kts 32°
2026-04-19 12:33 36.08080 10.43793 28 ft 22 kts 38°
2026-04-19 12:33 36.08131 10.43827 28 ft 0 kts 27°